Overview Statistics Trail Chart Weather Telemetry Raw packets
 

This is the latest recevied weather packets stored in our database for station/object N0RPM-13. If no packets are shown the sender has not sent any weather packets the latest 10 day(s).

<< 107 108 109 110 111 112 113 >>
Time Temp. Humidity Pressure Rain* Wind** Luminosity Snow
1787756012 22.22° C 68% 1014.9 hPa 0 mm - 276 W/m² -
1787755707 22.22° C 67% 1015.2 hPa 0 mm - 247 W/m² -
1787755403 22.22° C 67% 1014.9 hPa 0 mm - 310 W/m² -
1787755102 22.22° C 69% 1015.1 hPa 0 mm - 271 W/m² -
1787754796 22.22° C 67% 1015 hPa 0 mm - 302 W/m² -
1787754494 22.22° C 67% 1015 hPa 0 mm - 435 W/m² -
1787754188 22.22° C 68% 1014.7 hPa 0 mm - 359 W/m² -
1787753883 21.67° C 70% 1014.9 hPa 0 mm - 342 W/m² -
1787753583 21.67° C 70% 1014.9 hPa 0 mm - 319 W/m² -
1787753281 21.67° C 71% 1014.8 hPa 0 mm - 311 W/m² -
1787752976 21.67° C 70% 1015 hPa 0 mm - 295 W/m² -
1787752675 21.67° C 71% 1015 hPa 0 mm - 275 W/m² -
1787752371 21.67° C 72% 1014.8 hPa 0 mm - 262 W/m² -
1787752070 21.11° C 73% 1014.8 hPa 0 mm - 246 W/m² -
1787751764 21.11° C 73% 1014.7 hPa 0 mm - 141 W/m² -
1787751460 21.11° C 74% 1014.5 hPa 0 mm - 203 W/m² -
1787751155 20.56° C 74% 1014.9 hPa 0 mm - 199 W/m² -
1787750851 20.56° C 75% 1015 hPa 0 mm - 122 W/m² -
1787750546 20.56° C 76% 1014.8 hPa 0 mm - 102 W/m² -
1787750241 20° C 77% 1015 hPa 0 mm - 82 W/m² -
1787749936 20° C 77% 1015 hPa 0 mm - 68 W/m² -
1787749633 20° C 78% 1014.9 hPa 0 mm - 76 W/m² -
1787749328 19.44° C 79% 1014.9 hPa 0 mm - 92 W/m² -
1787749028 19.44° C 80% 1015 hPa 0 mm - 82 W/m² -
1787748723 19.44° C 81% 1014.8 hPa 0 mm - 57 W/m² -

* Rain latest hour (hover to see other rain measurements)
** Current wind speed in m/s (hover to see current wind gust speed)